Dewpoint
56 54 54 53 53 53 51 51 50 50 50 50 50 51 51 52 51 51 51 51 51 51 51 49 49 49 49 49 49 48 49 48 45 44 44 44 43 43 47 44 45 45 43 43 42 41 40 35 33 36 37 37 38 40 40 37 38 39 39 38 36 36 37
55 54 54 54 52 52 50 50 49 49 49 50 49 49 50 51 52 50 50 49 49 50 52 49 49 48 48 47 47 46 46 46 46 45 44 44 44 43 43 43 43 42 41 41 41 41 39 33 33 33 33 35 35 37 38 37 37 38 39 36 37 37 39
55 54 53 52 51 50 49 49 48 48 48 48 48 49 49 49 49 49 49 49 49 50 50 47 47 46 47 47 47 46 45 45 45 44 43 43 43 43 43 42 41 41 39 39 39 39 38 38 34 32 33 33 32 34 38 35 36 36 38 35 35 35 36
54 53 52 51 49 49 48 48 47 47 47 47 48 48 48 48 49 50 48 48 48 52 48 47 46 46 46 45 45 45 45 44 43 42 43 43 42 42 41 41 40 40 39 38 37 38 37 35 34 32 33 33 34 34 34 35 38 35 36 35 35 35 35
53 52 51 49 49 48 48 47 47 47 46 47 47 46 47 47 48 47 49 47 47 46 46 46 47 46 46 45 45 45 44 44 43 43 41 41 41 40 40 39 38 38 38 37 38 38 37 36 35 33 33 33 35 35 35 34 36 34 36 34 34 35 35
53 51 50 50 49 47 47 46 46 45 45 45 46 46 46 47 47 46 46 46 46 47 47 46 46 46 45 45 44 44 44 43 42 42 41 41 41 39 39 39 38 37 37 38 38 37 37 37 35 34 34 34 32 32 32 33 33 33 34 34 34 35 35
52 51 50 49 48 47 47 46 46 45 45 45 45 45 46 46 46 47 46 46 46 47 47 46 46 46 45 44 43 43 43 43 42 41 40 41 40 40 39 38 38 38 38 38 38 38 37 36 35 35 35 33 33 32 32 32 32 31 32 33 34 34 34
52 51 50 49 48 47 46 46 46 46 45 45 45 46 47 46 46 46 45 45 45 45 45 45 45 45 45 45 44 44 43 42 41 41 39 39 39 38 39 39 40 39 39 39 38 38 38 38 37 37 35 32 32 31 30 32 31 31 32 32 33 33 33
53 50 50 49 47 46 46 45 45 45 45 46 45 45 45 45 44 44 45 44 44 44 45 44 44 44 43 43 43 43 43 44 40 39 39 38 38 38 38 38 38 38 39 39 39 38 38 38 38 37 37 34 33 29 31 30 29 30 32 31 33 33 33
49 48 47 46 46 46 45 45 45 45 45 45 45 45 44 44 44 44 44 44 44 44 44 44 44 43 43 42 42 42 42 42 41 39 39 38 38 38 38 38 38 38 38 38 37 39 38 38 37 37 37 35 35 32 31 31 30 31 31 32 32 32 33
48 47 46 46 46 46 46 46 45 45 45 46 46 45 43 43 44 47 43 43 44 44 44 43 43 43 43 42 42 42 42 42 41 41 41 39 39 40 40 38 38 37 38 36 36 37 37 37 36 36 36 36 36 33 32 32 32 33 32 33 33 33 33
47 46 46 46 46 45 44 44 45 45 45 45 44 42 41 41 42 42 42 42 42 43 43 44 44 43 42 42 42 41 41 41 40 40 39 40 39 39 38 38 37 37 37 36 36 35 36 37 36 36 36 36 36 35 34 34 33 34 34 34 34 35 34
47 46 46 45 44 44 45 45 43 42 42 43 41 41 40 41 41 41 41 41 42 42 42 43 43 43 42 41 41 40 40 40 39 39 38 39 39 38 38 38 38 37 36 35 35 35 35 36 37 36 36 36 36 35 36 34 33 33 35 35 35 35 35
46 46 45 44 44 44 45 44 42 42 41 40 39 39 39 40 40 41 41 42 41 41 41 42 42 42 42 40 40 40 40 39 39 39 40 38 39 38 39 37 37 37 36 34 35 35 35 34 35 35 36 35 35 35 35 34 34 34 34 35 35 35 35
45 45 44 44 44 44 43 42 42 40 39 39 39 39 39 40 40 40 40 40 40 40 40 41 41 42 41 41 40 40 39 39 38 38 38 37 38 39 37 37 37 36 36 35 35 34 34 34 34 34 34 35 34 35 35 35 34 34 32 33 33 34 34
44 44 43 43 43 42 42 41 41 39 38 39 39 38 39 39 39 39 39 39 39 39 39 39 40 41 41 40 39 39 39 38 38 38 37 37 37 37 37 38 36 36 36 33 34 34 35 33 35 33 33 34 34 34 34 35 34 33 32 32 33 33 33
43 43 42 42 42 41 41 40 40 38 38 38 38 39 38 38 38 38 38 38 38 38 38 38 39 40 40 40 39 38 38 38 38 38 38 37 37 36 36 35 35 35 35 33 33 33 33 33 33 33 33 33 33 33 34 35 35 34 33 33 32 32 33
42 42 42 42 41 40 39 39 39 38 38 38 38 38 39 38 37 37 37 37 37 37 37 38 38 39 39 39 40 39 38 38 38 38 38 39 42 37 37 35 35 35 33 31 32 31 32 32 32 34 32 32 33 33 34 34 34 34 33 32 32 32 32
41 41 41 41 41 40 39 39 38 39 38 37 37 37 37 38 38 36 36 36 36 36 36 37 37 38 38 39 40 39 40 39 38 38 37 38 37 37 37 35 35 35 33 31 31 32 32 32 33 33 32 32 32 33 33 33 33 33 32 31 31 30 30
41 42 42 41 41 40 38 38 38 38 39 37 37 37 37 37 38 36 36 36 36 36 36 36 36 36 37 37 38 39 39 39 38 37 37 37 37 37 37 36 36 35 33 32 32 31 32 33 34 33 35 33 33 33 33 32 32 32 31 30 30 30 29
41 41 41 41 40 39 38 38 38 38 38 36 36 36 36 36 37 36 36 37 37 38 36 36 35 35 36 36 38 38 39 39 38 37 37 37 37 37 37 37 37 36 35 34 34 34 34 34 34 34 33 34 34 34 33 33 32 31 30 30 29 28 29
41 42 41 40 40 39 39 38 38 38 37 37 38 36 35 34 34 34 35 35 36 36 37 37 37 36 36 36 36 38 38 39 38 37 36 35 35 35 36 38 37 37 41 39 40 42 41 39 37 35 34 34 35 34 32 32 31 30 29 29 28 28 28
41 41 40 40 40 40 39 38 38 37 36 36 36 36 35 34 33 33 34 34 35 36 37 37 40 40 42 37 36 38 39 39 38 37 37 35 35 36 35 36 42 43 38 41 42 41 38 38 39 38 37 35 34 34 33 32 30 30 30 29 27 27 27
40 40 40 41 40 39 38 38 37 36 36 36 36 37 33 33 33 33 33 34 35 36 36 37 39 38 39 41 38 38 38 38 36 36 37 35 34 38 35 35 35 39 41 40 40 40 37 37 37 37 38 38 38 35 33 31 29 30 30 28 28 28 27
39 40 41 41 40 38 37 36 35 35 34 34 34 33 32 32 33 33 34 34 34 35 35 39 38 38 38 39 40 39 37 37 37 35 34 35 35 37 35 35 35 35 35 38 38 35 37 37 37 37 36 36 36 35 35 34 32 29 28 28 27 27 26
39 40 40 40 39 36 35 34 34 33 32 33 32 31 31 32 32 32 33 33 34 34 34 38 37 37 37 37 38 38 37 37 37 35 35 35 35 35 34 37 36 35 34 38 39 34 34 34 37 37 36 36 35 35 33 33 33 34 31 29 27 26 26
39 40 40 39 38 35 34 33 33 33 34 33 31 31 31 31 32 32 32 33 33 33 34 38 37 37 36 36 37 37 35 35 35 35 35 35 35 34 34 35 33 34 34 33 33 35 35 34 34 33 31 30 30 32 33 32 32 31 32 30 27 26 27
39 40 40 39 38 36 35 35 34 34 32 31 31 30 30 30 32 34 32 32 33 33 34 37 36 36 36 36 36 36 35 35 35 34 34 34 34 35 35 35 34 34 34 33 35 37 35 34 34 32 30 30 29 28 27 26 26 27 29 28 27 27 28
39 40 40 39 38 38 37 36 35 34 33 32 32 32 32 33 32 31 31 31 32 31 32 36 36 36 36 36 36 35 34 34 33 33 33 34 34 34 34 35 35 35 34 32 36 36 36 37 33 30 30 29 28 27 26 31 31 32 32 29 28 29 29
39 39 40 39 39 38 38 37 36 36 33 32 31 31 31 31 31 30 31 30 31 29 31 35 36 36 36 36 35 33 32 34 32 32 32 33 33 33 33 37 36 34 33 33 36 35 35 38 32 30 29 29 27 26 25 26 31 31 31 32 32 32 32
39 39 39 39 39 39 38 38 37 37 32 32 30 30 31 31 30 31 30 29 31 31 29 34 36 36 36 37 36 32 31 32 30 31 31 32 33 32 33 39 39 34 34 34 36 35 35 37 31 30 29 28 25 24 24 26 27 28 30 31 31 31 31
39 39 39 39 39 39 38 38 38 37 34 32 31 33 35 31 30 30 29 30 38 32 29 33 36 36 36 37 36 31 32 31 30 29 30 31 31 32 32 35 38 37 35 36 35 35 35 35 31 30 29 27 25 24 25 27 26 26 26 25 25 27 28
39 39 38 39 39 39 39 39 38 37 36 34 34 35 35 32 31 30 32 33 35 31 30 30 35 35 36 36 37 33 31 30 30 29 29 34 32 31 31 32 36 35 35 35 35 35 35 34 31 31 28 26 26 25 28 27 29 28 26 26 25 26 27
38 38 38 38 38 39 38 38 37 37 36 36 35 35 35 33 32 32 32 33 32 30 32 29 33 35 35 36 36 35 29 29 28 28 28 31 28 29 31 31 32 35 35 35 35 35 35 34 34 33 29 27 28 32 31 27 27 31 26 27 27 27 27
38 39 39 38 38 38 38 37 37 37 36 36 36 35 35 35 33 32 32 33 33 31 35 40 30 35 35 35 35 35 32 32 32 30 30 28 28 29 30 30 32 35 35 35 35 35 35 34 33 33 29 32 32 32 30 31 27 26 26 26 25 26 26
38 39 38 38 37 37 37 37 36 36 36 36 36 35 34 33 32 32 32 33 33 33 32 36 38 35 35 35 35 35 35 33 34 37 29 28 28 30 29 31 34 36 35 35 35 35 34 34 33 30 32 32 32 31 31 27 28 26 25 25 26 25 25
38 38 38 37 37 36 36 36 36 35 35 36 35 35 33 33 32 32 33 33 35 34 33 33 38 38 35 35 35 35 35 34 35 33 33 29 29 30 31 30 34 34 35 35 35 34 34 34 31 32 32 32 32 31 29 27 26 26 26 25 25 25 25